Time,TemperatureF,DewpointF,PressureIn,WindDirection,WindDirectionDegrees,WindSpeedMPH,WindSpeedGustMPH,Humidity,HourlyPrecipIn,Conditions,Clouds,dailyrainin,SolarRadiationWatts/m^2,SoftwareType,DateUTC
2013-01-23 00:00:00,59.8,8.8,30.05,South,172,5.0,5.0,13,0.00,,,0.00,0,Wunderground v.1.15,2013-01-23 08:00:00,
2013-01-23 00:05:00,59.6,8.6,30.05,South,171,3.0,5.0,13,0.00,,,0.00,0,Wunderground v.1.15,2013-01-23 08:05:00,
2013-01-23 00:15:00,59.8,8.8,30.04,SSE,164,5.0,5.0,13,0.00,,,0.00,0,Wunderground v.1.15,2013-01-23 08:15:00,
2013-01-23 00:20:00,59.9,8.8,30.04,SE,140,5.0,5.0,13,0.00,,,0.00,0,Wunderground v.1.15,2013-01-23 08:20:00,
2013-01-23 00:30:00,59.6,10.3,30.03,SSE,157,4.0,4.0,14,0.00,,,0.00,0,Wunderground v.1.15,2013-01-23 08:30:00,
2013-01-23 00:35:00,59.5,10.2,30.04,SSE,157,3.0,4.0,14,0.00,,,0.00,0,Wunderground v.1.15,2013-01-23 08:35:00,
2013-01-23 00:45:00,58.9,9.7,30.03,SSE,157,0.0,1.0,14,0.00,,,0.00,0,Wunderground v.1.15,2013-01-23 08:45:00,
2013-01-23 00:50:00,58.4,10.9,30.03,SSE,157,0.0,0.0,15,0.00,,,0.00,0,Wunderground v.1.15,2013-01-23 08:50:00,
2013-01-23 00:55:00,58.1,10.6,30.03,SSE,157,0.0,0.0,15,0.00,,,0.00,0,Wunderground v.1.15,2013-01-23 08:55:00,
2013-01-23 01:05:00,57.3,12.8,30.02,SSE,158,0.0,0.0,17,0.00,,,0.00,0,Wunderground v.1.15,2013-01-23 09:05:00,
2013-01-23 01:15:00,56.7,9.5,30.03,SSE,158,0.0,2.0,15,0.00,,,0.00,0,Wunderground v.1.15,2013-01-23 09:15:00,
2013-01-23 01:20:00,56.9,9.6,30.02,SSE,158,0.0,0.0,15,0.00,,,0.00,0,Wunderground v.1.15,2013-01-23 09:20:00,
2013-01-23 01:25:00,57.0,9.7,30.03,SSE,158,0.0,0.0,15,0.00,,,0.00,0,Wunderground v.1.15,2013-01-23 09:25:00,
2013-01-23 01:30:00,57.2,8.3,30.03,SSE,158,0.0,0.0,14,0.00,,,0.00,0,Wunderground v.1.15,2013-01-23 09:30:00,
2013-01-23 01:40:00,57.8,10.4,30.03,SSE,157,0.0,0.0,15,0.00,,,0.00,0,Wunderground v.1.15,2013-01-23 09:40:00,
2013-01-23 01:50:00,57.8,10.4,30.03,SSE,158,1.0,1.0,15,0.00,,,0.00,0,Wunderground v.1.15,2013-01-23 09:50:00,
2013-01-23 01:55:00,58.6,11.0,30.03,ENE,71,3.0,3.0,15,0.00,,,0.00,0,Wunderground v.1.15,2013-01-23 09:55:00,
2013-01-23 02:00:00,58.7,12.6,30.02,East,95,2.0,2.0,16,0.00,,,0.00,0,Wunderground v.1.15,2013-01-23 10:00:00,
2013-01-23 02:05:00,58.4,15.0,30.02,East,95,1.0,2.0,18,0.00,,,0.00,0,Wunderground v.1.15,2013-01-23 10:05:00,
2013-01-23 02:15:00,57.3,12.8,30.02,East,95,0.0,0.0,17,0.00,,,0.00,0,Wunderground v.1.15,2013-01-23 10:15:00,
2013-01-23 02:20:00,56.9,11.1,30.02,East,95,0.0,0.0,16,0.00,,,0.00,0,Wunderground v.1.15,2013-01-23 10:20:00,
2013-01-23 02:30:00,56.9,11.1,30.02,East,94,0.0,0.0,16,0.00,,,0.00,0,Wunderground v.1.15,2013-01-23 10:30:00,
2013-01-23 02:40:00,59.2,9.9,30.02,South,171,5.0,5.0,14,0.00,,,0.00,0,Wunderground v.1.15,2013-01-23 10:40:00,
2013-01-23 02:45:00,59.9,10.5,30.02,SSE,147,6.0,6.0,14,0.00,,,0.00,0,Wunderground v.1.15,2013-01-23 10:45:00,
2013-01-23 02:50:00,60.5,11.0,30.02,East,100,5.0,14.0,14,0.00,,,0.00,0,Wunderground v.1.15,2013-01-23 10:50:00,
2013-01-23 02:55:00,60.7,11.1,30.02,SSE,153,7.0,14.0,14,0.00,,,0.00,0,Wunderground v.1.15,2013-01-23 10:55:00,
2013-01-23 03:00:00,60.7,9.5,30.02,SSE,150,6.0,12.0,13,0.00,,,0.00,0,Wunderground v.1.15,2013-01-23 11:00:00,
2013-01-23 03:05:00,60.9,9.6,30.02,SSE,152,6.0,12.0,13,0.00,,,0.00,0,Wunderground v.1.15,2013-01-23 11:05:00,
2013-01-23 03:15:00,60.9,9.6,30.01,SSE,159,5.0,12.0,13,0.00,,,0.00,0,Wunderground v.1.15,2013-01-23 11:15:00,
2013-01-23 03:20:00,60.9,9.6,30.01,SSE,157,6.0,8.0,13,0.00,,,0.00,0,Wunderground v.1.15,2013-01-23 11:20:00,
2013-01-23 03:30:00,60.9,9.6,30.01,South,179,8.0,8.0,13,0.00,,,0.00,0,Wunderground v.1.15,2013-01-23 11:30:00,
2013-01-23 03:35:00,60.9,9.6,30.01,South,189,7.0,8.0,13,0.00,,,0.00,0,Wunderground v.1.15,2013-01-23 11:35:00,
2013-01-23 03:45:00,60.9,9.6,30.01,South,179,7.0,14.0,13,0.00,,,0.00,0,Wunderground v.1.15,2013-01-23 11:45:00,
2013-01-23 03:50:00,60.9,9.6,30.00,SSE,157,7.0,11.0,13,0.00,,,0.00,0,Wunderground v.1.15,2013-01-23 11:50:00,
2013-01-23 03:55:00,61.0,9.7,30.00,SSW,199,10.0,11.0,13,0.00,,,0.00,0,Wunderground v.1.15,2013-01-23 11:55:00,
2013-01-23 04:00:00,61.0,9.7,30.00,SSW,193,10.0,12.0,13,0.00,,,0.00,0,Wunderground v.1.15,2013-01-23 12:00:00,
2013-01-23 04:05:00,61.0,9.7,30.00,SSW,198,10.0,12.0,13,0.00,,,0.00,0,Wunderground v.1.15,2013-01-23 12:05:00,
2013-01-23 04:15:00,61.0,9.7,30.00,SSW,192,9.0,9.0,13,0.00,,,0.00,0,Wunderground v.1.15,2013-01-23 12:15:00,
2013-01-23 04:20:00,61.0,9.7,30.00,SSW,198,9.0,9.0,13,0.00,,,0.00,0,Wunderground v.1.15,2013-01-23 12:20:00,
2013-01-23 04:30:00,61.2,9.9,30.00,South,182,11.0,11.0,13,0.00,,,0.00,0,Wunderground v.1.15,2013-01-23 12:30:00,
2013-01-23 04:35:00,61.3,10.0,30.00,SSW,203,11.0,13.0,13,0.00,,,0.00,0,Wunderground v.1.15,2013-01-23 12:35:00,
2013-01-23 04:40:00,61.5,10.1,30.00,South,186,10.0,10.0,13,0.00,,,0.00,0,Wunderground v.1.15,2013-01-23 12:40:00,
2013-01-23 04:45:00,61.6,10.2,30.00,South,190,9.0,10.0,13,0.00,,,0.00,0,Wunderground v.1.15,2013-01-23 12:45:00,
2013-01-23 04:50:00,61.5,10.1,30.00,South,175,7.0,7.0,13,0.00,,,0.00,0,Wunderground v.1.15,2013-01-23 12:50:00,
2013-01-23 04:55:00,61.5,10.1,30.00,SSE,157,7.0,7.0,13,0.00,,,0.00,0,Wunderground v.1.15,2013-01-23 12:55:00,
2013-01-23 05:00:00,61.2,9.9,30.00,SE,137,6.0,9.0,13,0.00,,,0.00,0,Wunderground v.1.15,2013-01-23 13:00:00,
2013-01-23 05:05:00,61.2,11.5,30.00,SSE,159,6.0,9.0,14,0.00,,,0.00,0,Wunderground v.1.15,2013-01-23 13:05:00,
2013-01-23 05:15:00,60.9,11.3,30.01,SE,144,2.0,4.0,14,0.00,,,0.00,0,Wunderground v.1.15,2013-01-23 13:15:00,
2013-01-23 05:20:00,60.7,11.1,30.00,SSE,150,3.0,4.0,14,0.00,,,0.00,0,Wunderground v.1.15,2013-01-23 13:20:00,
2013-01-23 05:25:00,60.5,11.0,30.01,SE,140,5.0,8.0,14,0.00,,,0.00,0,Wunderground v.1.15,2013-01-23 13:25:00,
2013-01-23 05:30:00,60.2,10.7,30.01,SE,138,7.0,8.0,14,0.00,,,0.00,0,Wunderground v.1.15,2013-01-23 13:30:00,
2013-01-23 05:35:00,60.2,10.7,30.00,SE,145,8.0,11.0,14,0.00,,,0.00,0,Wunderground v.1.15,2013-01-23 13:35:00,
2013-01-23 05:40:00,60.2,10.7,30.01,SE,146,9.0,9.0,14,0.00,,,0.00,0,Wunderground v.1.15,2013-01-23 13:40:00,
2013-01-23 05:45:00,59.9,10.5,30.00,South,173,10.0,10.0,14,0.00,,,0.00,0,Wunderground v.1.15,2013-01-23 13:45:00,
2013-01-23 05:55:00,59.9,10.5,30.01,South,178,10.0,11.0,14,0.00,,,0.00,0,Wunderground v.1.15,2013-01-23 13:55:00,
2013-01-23 06:05:00,60.1,10.7,30.01,SSE,156,10.0,10.0,14,0.00,,,0.00,0,Wunderground v.1.15,2013-01-23 14:05:00,
2013-01-23 06:15:00,59.8,10.4,30.02,SSE,157,10.0,11.0,14,0.00,,,0.00,0,Wunderground v.1.15,2013-01-23 14:15:00,
2013-01-23 06:20:00,59.8,10.4,30.02,SE,139,10.0,10.0,14,0.00,,,0.00,0,Wunderground v.1.15,2013-01-23 14:20:00,
2013-01-23 06:25:00,60.1,9.0,30.01,South,186,10.0,18.0,13,0.00,,,0.00,0,Wunderground v.1.15,2013-01-23 14:25:00,
2013-01-23 06:35:00,60.2,10.7,30.01,SSE,153,11.0,12.0,14,0.00,,,0.00,0,Wunderground v.1.15,2013-01-23 14:35:00,
2013-01-23 06:40:00,60.2,10.7,30.01,South,175,10.0,10.0,14,0.00,,,0.00,0,Wunderground v.1.15,2013-01-23 14:40:00,
2013-01-23 06:45:00,60.2,10.7,30.01,SE,142,11.0,11.0,14,0.00,,,0.00,0,Wunderground v.1.15,2013-01-23 14:45:00,
2013-01-23 06:50:00,60.2,10.7,30.00,SSE,148,11.0,11.0,14,0.00,,,0.00,0,Wunderground v.1.15,2013-01-23 14:50:00,
2013-01-23 07:00:00,60.5,11.0,30.02,SSE,163,11.0,14.0,14,0.00,,,0.00,0,Wunderground v.1.15,2013-01-23 15:00:00,
2013-01-23 07:05:00,60.7,11.1,30.02,SSE,153,10.0,14.0,14,0.00,,,0.00,0,Wunderground v.1.15,2013-01-23 15:05:00,
2013-01-23 07:15:00,60.7,11.1,30.02,SSE,168,9.0,13.0,14,0.00,,,0.00,0,Wunderground v.1.15,2013-01-23 15:15:00,
2013-01-23 07:20:00,60.9,11.3,30.02,SSE,157,10.0,10.0,14,0.00,,,0.00,5,Wunderground v.1.15,2013-01-23 15:20:00,
2013-01-23 07:25:00,60.9,11.3,30.02,SSE,152,10.0,18.0,14,0.00,,,0.00,12,Wunderground v.1.15,2013-01-23 15:25:00,
2013-01-23 07:30:00,60.9,11.3,30.02,South,172,11.0,11.0,14,0.00,,,0.00,21,Wunderground v.1.15,2013-01-23 15:30:00,
2013-01-23 07:40:00,60.9,12.9,30.02,South,180,11.0,11.0,15,0.00,,,0.00,28,Wunderground v.1.15,2013-01-23 15:40:00,
2013-01-23 07:45:00,60.9,12.9,30.02,ESE,123,9.0,11.0,15,0.00,,,0.00,28,Wunderground v.1.15,2013-01-23 15:45:00,
2013-01-23 07:50:00,61.0,12.9,30.03,SE,137,8.0,8.0,15,0.00,,,0.00,28,Wunderground v.1.15,2013-01-23 15:50:00,
2013-01-23 07:55:00,61.2,13.1,30.02,SE,142,9.0,9.0,15,0.00,,,0.00,26,Wunderground v.1.15,2013-01-23 15:55:00,
2013-01-23 08:00:00,61.3,14.7,30.03,SSE,150,9.0,9.0,16,0.00,,,0.00,30,Wunderground v.1.15,2013-01-23 16:00:00,
2013-01-23 08:05:00,61.3,14.7,30.03,SSE,151,9.0,9.0,16,0.00,,,0.00,40,Wunderground v.1.15,2013-01-23 16:05:00,
2013-01-23 08:15:00,61.5,14.8,30.02,SE,129,8.0,10.0,16,0.00,,,0.00,47,Wunderground v.1.15,2013-01-23 16:15:00,
2013-01-23 08:20:00,61.5,14.8,30.02,SE,128,8.0,8.0,16,0.00,,,0.00,42,Wunderground v.1.15,2013-01-23 16:20:00,
2013-01-23 08:30:00,61.5,16.2,30.02,SE,144,8.0,11.0,17,0.00,,,0.00,42,Wunderground v.1.15,2013-01-23 16:30:00,
2013-01-23 08:35:00,61.5,16.2,30.03,SE,125,8.0,11.0,17,0.00,,,0.00,47,Wunderground v.1.15,2013-01-23 16:35:00,
2013-01-23 08:40:00,61.6,16.3,30.02,SSE,159,8.0,8.0,17,0.00,,,0.00,53,Wunderground v.1.15,2013-01-23 16:40:00,
2013-01-23 08:45:00,61.8,17.8,30.03,SSE,162,7.0,14.0,18,0.00,,,0.00,63,Wunderground v.1.15,2013-01-23 16:45:00,
2013-01-23 08:50:00,62.0,16.6,30.03,South,171,7.0,9.0,17,0.00,,,0.00,70,Wunderground v.1.15,2013-01-23 16:50:00,
2013-01-23 09:00:00,62.1,16.7,30.04,SSE,164,5.0,8.0,17,0.00,,,0.00,63,Wunderground v.1.15,2013-01-23 17:00:00,
2013-01-23 09:05:00,62.1,16.7,30.04,SSE,165,6.0,8.0,17,0.00,,,0.00,69,Wunderground v.1.15,2013-01-23 17:05:00,
2013-01-23 09:15:00,62.0,18.0,30.05,SSE,165,4.0,6.0,18,0.00,,,0.00,54,Wunderground v.1.15,2013-01-23 17:15:00,
2013-01-23 09:25:00,62.0,18.0,30.05,South,171,4.0,6.0,18,0.00,,,0.00,58,Wunderground v.1.15,2013-01-23 17:25:00,
2013-01-23 09:30:00,62.0,18.0,30.05,South,176,4.0,10.0,18,0.00,,,0.00,58,Wunderground v.1.15,2013-01-23 17:30:00,
2013-01-23 09:35:00,62.0,18.0,30.06,South,184,5.0,10.0,18,0.00,,,0.00,58,Wunderground v.1.15,2013-01-23 17:35:00,
2013-01-23 09:40:00,62.0,18.0,30.05,SE,133,6.0,6.0,18,0.00,,,0.00,62,Wunderground v.1.15,2013-01-23 17:40:00,
2013-01-23 09:45:00,62.0,19.2,30.06,South,171,4.0,6.0,19,0.00,,,0.00,69,Wunderground v.1.15,2013-01-23 17:45:00,
2013-01-23 09:50:00,61.8,20.3,30.06,SE,139,3.0,3.0,20,0.00,,,0.00,60,Wunderground v.1.15,2013-01-23 17:50:00,
2013-01-23 09:55:00,61.8,20.3,30.06,SE,136,4.0,5.0,20,0.00,,,0.00,67,Wunderground v.1.15,2013-01-23 17:55:00,
2013-01-23 10:00:00,61.8,20.3,30.06,South,177,4.0,11.0,20,0.00,,,0.00,67,Wunderground v.1.15,2013-01-23 18:00:00,
2013-01-23 10:05:00,62.1,19.3,30.06,South,170,6.0,11.0,19,0.00,,,0.00,65,Wunderground v.1.15,2013-01-23 18:05:00,
2013-01-23 10:15:00,62.4,18.3,30.06,South,177,11.0,11.0,18,0.00,,,0.00,62,Wunderground v.1.15,2013-01-23 18:15:00,
2013-01-23 10:20:00,62.4,17.0,30.06,South,175,12.0,14.0,17,0.00,,,0.00,54,Wunderground v.1.15,2013-01-23 18:20:00,
2013-01-23 10:25:00,62.3,16.9,30.06,South,190,12.0,14.0,17,0.00,,,0.00,53,Wunderground v.1.15,2013-01-23 18:25:00,
2013-01-23 10:30:00,62.1,16.7,30.06,South,180,11.0,11.0,17,0.00,,,0.00,63,Wunderground v.1.15,2013-01-23 18:30:00,
2013-01-23 10:35:00,62.0,15.2,30.06,South,180,10.0,13.0,16,0.00,,,0.00,67,Wunderground v.1.15,2013-01-23 18:35:00,
2013-01-23 10:45:00,61.8,15.1,30.06,SSW,195,12.0,12.0,16,0.00,,,0.00,88,Wunderground v.1.15,2013-01-23 18:45:00,
2013-01-23 10:50:00,61.8,15.1,30.06,South,184,12.0,14.0,16,0.00,,,0.00,84,Wunderground v.1.15,2013-01-23 18:50:00,
2013-01-23 10:55:00,61.8,15.1,30.05,SSE,167,11.0,14.0,16,0.00,,,0.00,81,Wunderground v.1.15,2013-01-23 18:55:00,
2013-01-23 11:00:00,61.8,15.1,30.06,South,178,11.0,11.0,16,0.00,,,0.00,74,Wunderground v.1.15,2013-01-23 19:00:00,
2013-01-23 11:05:00,61.6,16.3,30.05,South,190,11.0,12.0,17,0.00,,,0.00,83,Wunderground v.1.15,2013-01-23 19:05:00,
2013-01-23 11:15:00,61.6,14.9,30.06,SSE,163,9.0,13.0,16,0.00,,,0.00,81,Wunderground v.1.15,2013-01-23 19:15:00,
2013-01-23 11:20:00,61.6,14.9,30.05,South,187,10.0,10.0,16,0.00,,,0.00,86,Wunderground v.1.15,2013-01-23 19:20:00,
2013-01-23 11:25:00,61.6,16.3,30.05,South,187,10.0,10.0,17,0.00,,,0.00,107,Wunderground v.1.15,2013-01-23 19:25:00,
2013-01-23 11:30:00,61.8,16.5,30.05,South,171,9.0,9.0,17,0.00,,,0.00,93,Wunderground v.1.15,2013-01-23 19:30:00,
2013-01-23 11:35:00,61.8,17.8,30.04,South,178,9.0,9.0,18,0.00,,,0.00,76,Wunderground v.1.15,2013-01-23 19:35:00,
2013-01-23 11:40:00,62.0,18.0,30.04,SSE,155,7.0,7.0,18,0.00,,,0.00,70,Wunderground v.1.15,2013-01-23 19:40:00,
2013-01-23 11:45:00,62.0,18.0,30.03,SSE,155,7.0,9.0,18,0.00,,,0.00,81,Wunderground v.1.15,2013-01-23 19:45:00,
2013-01-23 11:50:00,62.0,18.0,30.03,SSE,162,8.0,8.0,18,0.00,,,0.00,90,Wunderground v.1.15,2013-01-23 19:50:00,
2013-01-23 12:00:00,62.1,18.0,30.03,SE,130,6.0,9.0,18,0.00,,,0.00,151,Wunderground v.1.15,2013-01-23 20:00:00,
2013-01-23 12:05:00,62.4,20.8,30.02,SE,138,7.0,9.0,20,0.00,,,0.00,139,Wunderground v.1.15,2013-01-23 20:05:00,
2013-01-23 12:15:00,62.9,20.0,30.02,SSE,155,6.0,9.0,19,0.00,,,0.00,132,Wunderground v.1.15,2013-01-23 20:15:00,
2013-01-23 12:20:00,62.9,20.0,30.02,South,185,8.0,8.0,19,0.00,,,0.00,128,Wunderground v.1.15,2013-01-23 20:20:00,
2013-01-23 12:25:00,63.1,20.1,30.02,SE,138,7.0,8.0,19,0.00,,,0.00,120,Wunderground v.1.15,2013-01-23 20:25:00,
2013-01-23 12:30:00,63.1,20.1,30.02,SE,142,7.0,7.0,19,0.00,,,0.00,98,Wunderground v.1.15,2013-01-23 20:30:00,
2013-01-23 12:40:00,63.1,21.3,30.02,South,174,7.0,10.0,20,0.00,,,0.00,102,Wunderground v.1.15,2013-01-23 20:40:00,
2013-01-23 12:45:00,63.1,21.3,30.01,SE,142,7.0,10.0,20,0.00,,,0.00,102,Wunderground v.1.15,2013-01-23 20:45:00,
2013-01-23 12:50:00,63.1,21.3,30.02,SSE,155,7.0,7.0,20,0.00,,,0.00,88,Wunderground v.1.15,2013-01-23 20:50:00,
2013-01-23 12:55:00,62.9,21.2,30.01,SSE,155,6.0,9.0,20,0.00,,,0.00,72,Wunderground v.1.15,2013-01-23 20:55:00,
2013-01-23 13:05:00,62.7,21.0,30.02,SSE,162,4.0,6.0,20,0.00,,,0.00,67,Wunderground v.1.15,2013-01-23 21:05:00,
2013-01-23 13:15:00,62.6,19.7,30.01,South,169,4.0,6.0,19,0.00,,,0.00,58,Wunderground v.1.15,2013-01-23 21:15:00,
2013-01-23 13:25:00,62.4,19.5,30.01,South,182,5.0,8.0,19,0.00,,,0.00,63,Wunderground v.1.15,2013-01-23 21:25:00,
2013-01-23 13:35:00,62.3,20.7,30.00,South,180,3.0,5.0,20,0.00,,,0.00,62,Wunderground v.1.15,2013-01-23 21:35:00,
2013-01-23 13:40:00,62.3,20.7,30.00,South,180,2.0,2.0,20,0.00,,,0.00,51,Wunderground v.1.15,2013-01-23 21:40:00,
2013-01-23 13:45:00,62.3,21.8,30.00,South,180,1.0,5.0,21,0.00,,,0.00,51,Wunderground v.1.15,2013-01-23 21:45:00,
2013-01-23 13:50:00,62.3,22.9,30.01,South,182,2.0,4.0,22,0.00,,,0.00,53,Wunderground v.1.15,2013-01-23 21:50:00,
2013-01-23 13:55:00,62.4,24.1,30.00,South,183,4.0,4.0,23,0.00,,,0.00,58,Wunderground v.1.15,2013-01-23 21:55:00,
2013-01-23 14:00:00,62.6,24.2,30.00,South,183,2.0,2.0,23,0.00,,,0.00,60,Wunderground v.1.15,2013-01-23 22:00:00,
2013-01-23 14:05:00,62.6,25.3,30.00,South,183,1.0,5.0,24,0.00,,,0.00,53,Wunderground v.1.15,2013-01-23 22:05:00,
2013-01-23 14:15:00,62.9,25.5,30.00,South,186,4.0,7.0,24,0.00,,,0.00,53,Wunderground v.1.15,2013-01-23 22:15:00,
2013-01-23 14:20:00,63.1,24.7,30.00,South,186,5.0,5.0,23,0.00,,,0.00,46,Wunderground v.1.15,2013-01-23 22:20:00,
2013-01-23 14:25:00,63.1,24.7,30.00,South,182,5.0,5.0,23,0.00,,,0.00,49,Wunderground v.1.15,2013-01-23 22:25:00,
2013-01-23 14:30:00,63.2,24.7,30.00,South,179,5.0,5.0,23,0.00,,,0.00,44,Wunderground v.1.15,2013-01-23 22:30:00,
2013-01-23 14:35:00,63.2,24.7,30.00,South,180,4.0,5.0,23,0.00,,,0.00,37,Wunderground v.1.15,2013-01-23 22:35:00,
2013-01-23 14:45:00,63.2,23.7,30.00,South,178,3.0,5.0,22,0.00,,,0.00,47,Wunderground v.1.15,2013-01-23 22:45:00,
2013-01-23 14:50:00,63.2,23.7,30.00,South,178,2.0,2.0,22,0.00,,,0.00,49,Wunderground v.1.15,2013-01-23 22:50:00,
2013-01-23 15:00:00,63.1,23.6,30.00,South,180,2.0,2.0,22,0.00,,,0.00,60,Wunderground v.1.15,2013-01-23 23:00:00,
2013-01-23 15:05:00,62.9,24.5,30.00,South,180,1.0,4.0,23,0.00,,,0.00,54,Wunderground v.1.15,2013-01-23 23:05:00,
2013-01-23 15:15:00,62.9,22.3,30.00,SSE,157,3.0,4.0,21,0.00,,,0.00,42,Wunderground v.1.15,2013-01-23 23:15:00,
2013-01-23 15:25:00,62.7,22.2,30.00,SSE,167,3.0,5.0,21,0.00,,,0.00,32,Wunderground v.1.15,2013-01-23 23:25:00,
2013-01-23 15:30:00,62.7,22.2,30.00,South,169,4.0,4.0,21,0.00,,,0.00,32,Wunderground v.1.15,2013-01-23 23:30:00,
2013-01-23 15:35:00,62.7,22.2,30.00,South,169,4.0,4.0,21,0.00,,,0.00,35,Wunderground v.1.15,2013-01-23 23:35:00,
2013-01-23 15:40:00,62.6,20.9,30.00,South,169,2.0,2.0,20,0.00,,,0.00,39,Wunderground v.1.15,2013-01-23 23:40:00,
2013-01-23 15:50:00,62.3,20.7,30.00,South,169,0.0,0.0,20,0.00,,,0.00,47,Wunderground v.1.15,2013-01-23 23:50:00,
2013-01-23 15:55:00,62.3,21.8,30.00,South,172,1.0,5.0,21,0.00,,,0.00,42,Wunderground v.1.15,2013-01-23 23:55:00,
2013-01-23 16:00:00,62.4,20.8,29.99,SSE,152,4.0,4.0,20,0.00,,,0.00,47,Wunderground v.1.15,2013-01-24 00:00:00,
2013-01-23 16:05:00,62.3,20.7,30.00,SSE,155,3.0,5.0,20,0.00,,,0.00,46,Wunderground v.1.15,2013-01-24 00:05:00,
2013-01-23 16:15:00,62.4,19.5,29.99,South,182,4.0,5.0,19,0.00,,,0.00,47,Wunderground v.1.15,2013-01-24 00:15:00,
2013-01-23 16:25:00,62.6,19.7,29.98,South,178,6.0,6.0,19,0.00,,,0.00,26,Wunderground v.1.15,2013-01-24 00:25:00,
2013-01-23 16:30:00,62.7,19.8,29.98,South,171,4.0,4.0,19,0.00,,,0.00,23,Wunderground v.1.15,2013-01-24 00:30:00,
2013-01-23 16:35:00,62.6,20.9,29.98,South,174,2.0,4.0,20,0.00,,,0.00,23,Wunderground v.1.15,2013-01-24 00:35:00,
2013-01-23 16:45:00,62.4,21.9,29.98,South,175,1.0,1.0,21,0.00,,,0.00,11,Wunderground v.1.15,2013-01-24 00:45:00,
2013-01-23 16:50:00,62.4,21.9,29.98,South,175,1.0,1.0,21,0.00,,,0.00,9,Wunderground v.1.15,2013-01-24 00:50:00,
2013-01-23 17:00:00,62.1,22.8,29.98,South,176,1.0,1.0,22,0.00,,,0.00,0,Wunderground v.1.15,2013-01-24 01:00:00,
2013-01-23 17:05:00,62.0,22.7,29.99,South,176,0.0,1.0,22,0.00,,,0.00,0,Wunderground v.1.15,2013-01-24 01:05:00,
2013-01-23 17:15:00,61.8,23.6,29.99,South,178,3.0,5.0,23,0.00,,,0.00,0,Wunderground v.1.15,2013-01-24 01:15:00,
2013-01-23 17:20:00,61.8,23.6,29.99,South,179,3.0,6.0,23,0.00,,,0.00,0,Wunderground v.1.15,2013-01-24 01:20:00,
2013-01-23 17:30:00,62.0,23.7,30.00,South,180,3.0,3.0,23,0.00,,,0.00,0,Wunderground v.1.15,2013-01-24 01:30:00,
2013-01-23 17:35:00,62.0,23.7,30.00,South,180,2.0,4.0,23,0.00,,,0.00,0,Wunderground v.1.15,2013-01-24 01:35:00,
2013-01-23 17:45:00,61.8,22.5,30.01,South,170,5.0,6.0,22,0.00,,,0.00,0,Wunderground v.1.15,2013-01-24 01:45:00,
2013-01-23 17:50:00,61.6,22.3,30.02,South,173,4.0,4.0,22,0.00,,,0.00,0,Wunderground v.1.15,2013-01-24 01:50:00,
2013-01-23 18:00:00,61.2,18.6,30.02,SE,146,6.0,6.0,19,0.00,,,0.00,0,Wunderground v.1.15,2013-01-24 02:00:00,
2013-01-23 18:05:00,60.7,19.3,30.02,South,175,5.0,6.0,20,0.00,,,0.00,0,Wunderground v.1.15,2013-01-24 02:05:00,
2013-01-23 18:15:00,60.4,17.9,30.01,South,182,5.0,5.0,19,0.00,,,0.00,0,Wunderground v.1.15,2013-01-24 02:15:00,
2013-01-23 18:20:00,60.1,17.6,30.02,SSE,161,6.0,6.0,19,0.00,,,0.00,0,Wunderground v.1.15,2013-01-24 02:20:00,
2013-01-23 18:25:00,59.9,17.5,30.02,South,186,7.0,7.0,19,0.00,,,0.00,0,Wunderground v.1.15,2013-01-24 02:25:00,
2013-01-23 18:30:00,59.8,17.4,30.02,South,189,7.0,9.0,19,0.00,,,0.00,0,Wunderground v.1.15,2013-01-24 02:30:00,
2013-01-23 18:35:00,59.6,17.2,30.03,SSW,192,7.0,9.0,19,0.00,,,0.00,0,Wunderground v.1.15,2013-01-24 02:35:00,
2013-01-23 18:40:00,59.6,17.2,30.03,SSW,193,7.0,7.0,19,0.00,,,0.00,0,Wunderground v.1.15,2013-01-24 02:40:00,
2013-01-23 18:45:00,59.6,17.2,30.03,SSW,192,7.0,7.0,19,0.00,,,0.00,0,Wunderground v.1.15,2013-01-24 02:45:00,
2013-01-23 18:50:00,59.8,18.6,30.03,SSW,195,6.0,6.0,20,0.00,,,0.00,0,Wunderground v.1.15,2013-01-24 02:50:00,
2013-01-23 19:00:00,59.9,17.5,30.03,South,188,7.0,7.0,19,0.00,,,0.00,0,Wunderground v.1.15,2013-01-24 03:00:00,
2013-01-23 19:05:00,59.9,17.5,30.03,South,189,6.0,7.0,19,0.00,,,0.00,0,Wunderground v.1.15,2013-01-24 03:05:00,
2013-01-23 19:15:00,59.8,16.1,30.03,South,175,4.0,9.0,18,0.00,,,0.00,0,Wunderground v.1.15,2013-01-24 03:15:00,
2013-01-23 19:20:00,59.6,16.0,30.03,South,180,5.0,7.0,18,0.00,,,0.00,0,Wunderground v.1.15,2013-01-24 03:20:00,
2013-01-23 19:30:00,59.3,15.7,30.02,South,184,4.0,4.0,18,0.00,,,0.00,0,Wunderground v.1.15,2013-01-24 03:30:00,
2013-01-23 19:35:00,59.3,17.0,30.02,South,184,3.0,4.0,19,0.00,,,0.00,0,Wunderground v.1.15,2013-01-24 03:35:00,
2013-01-23 19:45:00,59.2,18.1,30.02,South,184,2.0,6.0,20,0.00,,,0.00,0,Wunderground v.1.15,2013-01-24 03:45:00,
2013-01-23 19:50:00,59.5,18.3,30.02,South,183,3.0,8.0,20,0.00,,,0.00,0,Wunderground v.1.15,2013-01-24 03:50:00,
2013-01-23 20:00:00,59.8,18.6,30.02,South,184,5.0,5.0,20,0.00,,,0.00,0,Wunderground v.1.15,2013-01-24 04:00:00,
2013-01-23 20:05:00,59.8,19.7,30.02,South,186,4.0,5.0,21,0.00,,,0.00,0,Wunderground v.1.15,2013-01-24 04:05:00,
2013-01-23 20:15:00,59.8,19.7,30.01,South,186,2.0,3.0,21,0.00,,,0.00,0,Wunderground v.1.15,2013-01-24 04:15:00,
2013-01-23 20:20:00,59.8,20.8,30.01,South,186,0.0,0.0,22,0.00,,,0.00,0,Wunderground v.1.15,2013-01-24 04:20:00,
2013-01-23 20:30:00,59.6,21.7,30.02,South,186,0.0,0.0,23,0.00,,,0.00,0,Wunderground v.1.15,2013-01-24 04:30:00,
2013-01-23 20:35:00,59.5,21.6,30.02,South,186,0.0,0.0,23,0.00,,,0.00,0,Wunderground v.1.15,2013-01-24 04:35:00,
2013-01-23 20:45:00,59.3,21.5,30.02,South,186,1.0,4.0,23,0.00,,,0.00,0,Wunderground v.1.15,2013-01-24 04:45:00,
2013-01-23 20:50:00,59.3,21.5,30.02,South,186,2.0,3.0,23,0.00,,,0.00,0,Wunderground v.1.15,2013-01-24 04:50:00,
2013-01-23 21:00:00,59.6,21.7,30.02,South,175,5.0,5.0,23,0.00,,,0.00,0,Wunderground v.1.15,2013-01-24 05:00:00,
2013-01-23 21:05:00,59.8,21.9,30.02,South,175,3.0,5.0,23,0.00,,,0.00,0,Wunderground v.1.15,2013-01-24 05:05:00,
2013-01-23 21:10:00,59.8,22.9,30.02,South,180,2.0,2.0,24,0.00,,,0.00,0,Wunderground v.1.15,2013-01-24 05:10:00,
2013-01-23 21:15:00,59.8,22.9,30.02,South,179,3.0,6.0,24,0.00,,,0.00,0,Wunderground v.1.15,2013-01-24 05:15:00,
2013-01-23 21:25:00,60.1,23.1,30.03,SE,143,6.0,6.0,24,0.00,,,0.00,0,Wunderground v.1.15,2013-01-24 05:25:00,
2013-01-23 21:30:00,60.4,22.4,30.03,SSE,163,6.0,8.0,23,0.00,,,0.00,0,Wunderground v.1.15,2013-01-24 05:30:00,
2013-01-23 21:35:00,60.5,22.5,30.03,SE,142,7.0,8.0,23,0.00,,,0.00,0,Wunderground v.1.15,2013-01-24 05:35:00,
2013-01-23 21:45:00,60.5,23.5,30.03,SSE,157,5.0,9.0,24,0.00,,,0.00,0,Wunderground v.1.15,2013-01-24 05:45:00,
2013-01-23 21:50:00,60.5,23.5,30.03,SSE,154,7.0,7.0,24,0.00,,,0.00,0,Wunderground v.1.15,2013-01-24 05:50:00,
2013-01-23 22:00:00,60.9,23.8,30.03,SSE,167,10.0,10.0,24,0.00,,,0.00,0,Wunderground v.1.15,2013-01-24 06:00:00,
2013-01-23 22:05:00,60.7,25.6,30.03,ESE,119,11.0,15.0,26,0.00,,,0.00,0,Wunderground v.1.15,2013-01-24 06:05:00,
2013-01-23 22:15:00,60.4,26.2,30.04,SSE,157,14.0,21.0,27,0.00,,,0.00,0,Wunderground v.1.15,2013-01-24 06:15:00,
2013-01-23 22:20:00,60.2,26.1,30.03,SE,134,14.0,14.0,27,0.00,,,0.00,0,Wunderground v.1.15,2013-01-24 06:20:00,
2013-01-23 22:30:00,59.9,27.5,30.03,SE,139,12.0,15.0,29,0.00,,,0.00,0,Wunderground v.1.15,2013-01-24 06:30:00,
2013-01-23 22:35:00,59.9,27.5,30.03,ESE,114,12.0,15.0,29,0.00,,,0.00,0,Wunderground v.1.15,2013-01-24 06:35:00,
2013-01-23 22:45:00,59.6,27.3,30.02,SE,134,8.0,10.0,29,0.00,,,0.00,0,Wunderground v.1.15,2013-01-24 06:45:00,
2013-01-23 22:50:00,59.6,27.3,30.02,SSE,166,10.0,10.0,29,0.00,,,0.00,0,Wunderground v.1.15,2013-01-24 06:50:00,
2013-01-23 22:55:00,59.6,27.3,30.02,SE,145,10.0,10.0,29,0.00,,,0.00,0,Wunderground v.1.15,2013-01-24 06:55:00,
2013-01-23 23:00:00,59.5,28.0,30.02,South,169,8.0,8.0,30,0.00,,,0.00,0,Wunderground v.1.15,2013-01-24 07:00:00,
2013-01-23 23:05:00,59.5,28.0,30.02,SSE,159,8.0,8.0,30,0.00,,,0.00,0,Wunderground v.1.15,2013-01-24 07:05:00,
2013-01-23 23:14:00,59.2,27.7,30.02,SSE,157,7.0,12.0,30,0.00,,,0.00,0,Wunderground v.1.15,2013-01-24 07:14:00,
2013-01-23 23:20:00,59.2,27.7,30.02,SE,132,8.0,8.0,30,0.00,,,0.00,0,Wunderground v.1.15,2013-01-24 07:20:00,
2013-01-23 23:25:00,59.0,28.4,30.02,SSE,153,8.0,8.0,31,0.00,,,0.00,0,Wunderground v.1.15,2013-01-24 07:25:00,
2013-01-23 23:30:00,58.9,29.1,30.01,SE,134,7.0,7.0,32,0.00,,,0.00,0,Wunderground v.1.15,2013-01-24 07:30:00,
2013-01-23 23:35:00,58.7,28.9,30.02,SE,144,7.0,10.0,32,0.00,,,0.00,0,Wunderground v.1.15,2013-01-24 07:35:00,
2013-01-23 23:45:00,58.6,28.8,30.01,SE,132,9.0,11.0,32,0.00,,,0.00,0,Wunderground v.1.15,2013-01-24 07:45:00,
2013-01-23 23:50:00,58.3,29.3,30.01,SE,134,9.0,12.0,33,0.00,,,0.00,0,Wunderground v.1.15,2013-01-24 07:50:00,